Regional Weather Roundup
Issued by NWS Little Rock, AR

Home | Current Version | Previous Version | Text Only | Print | Product List | Glossary Off
Versions: 1 2 3 4 5 6 7 8 9 10 11 12 13 14 15 16 17 18 19 20 21 22 23 24 25 26 27 28 29 30 31 32 33 34 35 36 37 38 39 40 41 42 43 44 45 46 47 48 49 50

000
ASUS44 KLZK 261505
RWRLZK

WEATHER ROUNDUP FOR ARKANSAS
NATIONAL WEATHER SERVICE LITTLE ROCK AR
900 AM CST THU FEB 26 2015

NOTE: "FAIR" INDICATES FEW OR NO CLOUDS BELOW 12,000 FEET WITH NO
SIGNIFICANT WEATHER AND/OR OBSTRUCTIONS TO VISIBILITY.

ARZ001-003-010-029-261600-
NORTHWEST ARKANSAS

CITY           SKY/WX    TMP DP  RH WIND       PRES   REMARKS
FAYETTEVILLE   CLOUDY    22  15  75 N16       30.23R WCI   8
FORT SMITH     CLOUDY    29  17  61 NW12      30.26R WCI  19
HARRISON       CLOUDY    21  16  81 NW16G23   30.18R WCI   7
BENTONVILLE    CLOUDY    19  10  68 N14       30.25R WCI   6
ROGERS         FLURRIES  18  11  74 N12G25    30.25R WCI   5
SILOAM SPGS    CLOUDY    21   9  58 N16G24    30.26R WCI   7
HIGHFILL       FLURRIES  20  12  71 N20       30.24R WCI   4
SPRINGDALE     CLOUDY    21  14  73 NE16G28   30.24R WCI   7
$$

ARZ004-005-016-261600-
NORTH CENTRAL ARKANSAS

CITY           SKY/WX    TMP DP  RH WIND       PRES   REMARKS
BATESVILLE     CLOUDY    30  21  69 W14G25    30.12R WCI  20
FLIPPIN        CLOUDY    25  16  68 N12       30.19R WCI  14
MTN HOME       CLOUDY    23  18  81 NW8       30.18R WCI  14
$$

ARZ040-041-261600-
WEST CENTRAL ARKANSAS

CITY           SKY/WX    TMP DP  RH WIND       PRES   REMARKS
MENA           CLOUDY    32  25  74 NW15G23   30.14R WCI  22
MOUNT IDA      CLOUDY    32  25  75 NW10      30.11R WCI  24
$$

ARZ009-017-025-026-028-261600-
NORTHEAST ARKANSAS

CITY           SKY/WX    TMP DP  RH WIND       PRES   REMARKS
JONESBORO      MOSUNNY   32  29  88 NW14G21   30.09R WCI  22
NEWPORT        CLOUDY    33  27  79 NW21      30.13R WCI  21
WALNUT RIDGE   PTSUNNY   32  25  74 NW22      30.11R WCI  19
BLYTHEVILLE    CLOUDY    33  31  92 NW7       30.09R WCI  27
NW BLYTHEVILLE CLOUDY    34  30  86 NW6       30.08R WCI  29
$$

ARZ022-023-033-042-044-261600-
CENTRAL ARKANSAS

CITY           SKY/WX    TMP DP  RH WIND       PRES   REMARKS
LITTLE ROCK    PTSUNNY   33  28  81 N17       30.12R WCI  22
N LITTLE ROCK  PTSUNNY   33  32  97 NW10G21   30.12R WCI  25
JACKSONVILLE   CLOUDY    33  31  94 NW10      30.11R WCI  24
SEARCY         CLOUDY    34  27  75 NW12G20   30.13R WCI  25
HOT SPRINGS    CLOUDY    33  30  88 VRB6G17   30.12R WCI  28
RUSSELLVILLE   CLOUDY    33  23  66 NW9       30.15R WCI  25
CLINTON        PTSUNNY   28  19  69 NW16G26   30.16R WCI  17
$$

ARZ036-261600-
EAST ARKANSAS

CITY           SKY/WX    TMP DP  RH WIND       PRES   REMARKS
WEST MEMPHIS   CLOUDY    29  29 100 W5        30.09R FOG     WCI  24
$$

ARZ050-053-066-070-073-261600-
SOUTHWEST ARKANSAS

CITY           SKY/WX    TMP DP  RH WIND       PRES   REMARKS
ARKADELPHIA    FAIR      32  32 100 CALM      30.14R FOG
CAMDEN         CLOUDY    32  30  93 CALM      30.15R FOG
TEXARKANA      PTSUNNY   32  30  92 NW12      30.13R WCI  23
EL DORADO      MOSUNNY   32  30  92 W5        30.13R WCI  27
DE QUEEN       CLOUDY    31  27  85 N10G18    30.15R WCI  22
$$

ARZ056-057-069-261600-
SOUTHEAST ARKANSAS

CITY           SKY/WX    TMP DP  RH WIND       PRES   REMARKS
PINE BLUFF     PTSUNNY   30  30 100 W3        30.12R
STUTTGART      CLOUDY    30  28  93 CALM      30.11R
MONTICELLO     CLOUDY    32  29  88 W5        30.11R FOG     WCI  27

$$





USA.gov is the U.S. government's official web portal to all federal, state and local government web resources and services.